Ypsilanti, MI

2:16 AM EDT on March 27, 2017 (GMT -0400)
Willow Run

Weather History for KYIP - November, 2011

Change the Weather History Date:

Wednesday, November 30, 2011

  Actual Average Record
Temperature  
Mean Temperature 34 °F -  
Max Temperature 39 °F 41 °F 64 °F (1998)
Min Temperature 28 °F 29 °F 9 °F (1976)
Degree Days  
Heating Degree Days 32    
Moisture  
Dew Point 26 °F    
Average Humidity 74    
Maximum Humidity 87    
Minimum Humidity 51    
Precipitation  
Precipitation 0.00 in - - ()
Sea Level Pressure  
Sea Level Pressure 29.85 in    
Wind  
Wind Speed 15 mph (WNW)    
Max Wind Speed 21 mph    
Max Gust Speed 33 mph    
Visibility 8 miles    
Events Snow    
Averages and records for this station are not official NWS values.
T = Trace of Precipitation, MM = Missing Value Source: NWS Daily Summary

Daily Weather History Graph

Daily Weather History Graph

Search for Another Location

Airport or City:

Trip Planner

Search our weather history database for the weather conditions in past years. The results will help you decide how hot, cold, wet, or windy it might be!

Date:

Astronomy

Nov. 30, 2011 Rise Set
Actual Time 7:41 AM EST 5:03 PM EST
Civil Twilight 7:10 AM EST 5:34 PM EST
Nautical Twilight 6:35 AM EST 6:09 PM EST
Astronomical Twilight 6:02 AM EST 6:42 PM EST
Moon 11:56 AM EST (11/30) 11:03 PM EST (11/30)
Length of Visible Light 10h 23m
Length of Day
9h 21m
Waxing Crescent, 33% of the Moon is Illuminated
Nov 30
Waxing Crescent
Dec 2
First Quarter
Dec 10
Full
Dec 17
Last Quarter
Dec 24
New

Hourly Weather History & Observations

Time (EST) Temp. Windchill Dew Point Humidity Pressure Visibility Wind Dir Wind Speed Gust Speed Precip Events Conditions
12:49 AM 35.6 °F 25.9 °F 30.2 °F 81% 29.65 in 10.0 mi NNW 16.1 mph - N/A   Overcast
12:53 AM 36.0 °F 26.3 °F 30.9 °F 82% 29.66 in 10.0 mi NW 16.1 mph - N/A   Overcast
1:28 AM 35.6 °F 25.5 °F 30.2 °F 81% 29.65 in 7.0 mi NNW 17.3 mph 23.0 mph 0.00 in Snow Light Snow
1:43 AM 35.6 °F 25.9 °F 30.2 °F 81% 29.66 in 2.5 mi NW 16.1 mph - 0.00 in Snow Light Snow
1:53 AM 34.0 °F 24.2 °F 30.0 °F 85% 29.68 in 2.5 mi NW 15.0 mph 27.6 mph 0.00 in Snow Light Snow
1:58 AM 33.8 °F 23.9 °F 30.2 °F 87% 29.66 in 3.0 mi NNW 15.0 mph 25.3 mph 0.00 in Snow Light Snow
2:14 AM 33.8 °F 23.2 °F 28.4 °F 81% 29.67 in 7.0 mi NW 17.3 mph 26.5 mph 0.00 in Snow Light Snow
2:53 AM 33.8 °F 22.2 °F 28.4 °F 81% 29.69 in 5.0 mi NW 20.7 mph 26.5 mph N/A Snow Light Snow
3:02 AM 33.8 °F 22.8 °F 28.4 °F 81% 29.70 in 1.8 mi NW 18.4 mph 25.3 mph 0.00 in Snow Light Snow
3:12 AM 33.8 °F 23.2 °F 28.4 °F 81% 29.70 in 1.2 mi NW 17.3 mph 24.2 mph 0.00 in Snow Light Snow
3:27 AM 33.8 °F 23.2 °F 28.4 °F 81% 29.71 in 2.5 mi NW 17.3 mph 28.8 mph 0.00 in Snow Light Snow
3:39 AM 33.8 °F 23.5 °F 26.6 °F 75% 29.71 in 1.2 mi NW 16.1 mph 33.4 mph 0.00 in Snow Light Snow
3:46 AM 33.8 °F 23.2 °F 26.6 °F 75% 29.71 in 1.5 mi NW 17.3 mph 25.3 mph 0.00 in Snow Light Snow
3:48 AM 33.8 °F 23.5 °F 26.6 °F 75% 29.71 in 2.0 mi NW 16.1 mph 25.3 mph 0.00 in Snow Light Snow
3:53 AM 33.1 °F 21.9 °F 27.0 °F 78% 29.73 in 5.0 mi NW 18.4 mph 25.3 mph 0.00 in Snow Light Snow
4:19 AM 33.8 °F 22.2 °F 26.6 °F 75% 29.72 in 9.0 mi NW 20.7 mph 27.6 mph 0.00 in Snow Light Snow
4:26 AM 33.8 °F 23.2 °F 26.6 °F 75% 29.73 in 10.0 mi NW 17.3 mph 24.2 mph 0.00 in   Overcast
4:34 AM 33.8 °F 23.2 °F 26.6 °F 75% 29.73 in 10.0 mi NW 17.3 mph 24.2 mph 0.00 in   Overcast
4:53 AM 32.0 °F 21.6 °F 25.0 °F 75% 29.76 in 10.0 mi NW 15.0 mph 27.6 mph 0.00 in   Overcast
5:53 AM 32.0 °F 20.1 °F 24.1 °F 73% 29.78 in 10.0 mi NW 19.6 mph 26.5 mph N/A   Overcast
6:51 AM 32.0 °F 22.1 °F 24.8 °F 75% 29.79 in 10.0 mi WNW 13.8 mph - N/A   Overcast
6:53 AM 32.0 °F 21.6 °F 24.1 °F 73% 29.81 in 10.0 mi WNW 15.0 mph - N/A   Overcast
7:10 AM 30.2 °F 20.2 °F 24.8 °F 80% 29.80 in 10.0 mi WNW 12.7 mph - N/A   Scattered Clouds
7:53 AM 30.9 °F 20.2 °F 24.1 °F 76% 29.82 in 10.0 mi WNW 15.0 mph - N/A   Clear
8:53 AM 33.1 °F 21.9 °F 23.0 °F 66% 29.85 in 10.0 mi NW 18.4 mph - N/A   Clear
9:53 AM 34.0 °F 23.0 °F 24.1 °F 67% 29.88 in 10.0 mi NW 18.4 mph 23.0 mph N/A   Clear
10:53 AM 35.1 °F 25.5 °F 25.0 °F 67% 29.92 in 10.0 mi NW 15.0 mph 23.0 mph N/A   Clear
11:53 AM 37.9 °F 29.6 °F 25.0 °F 60% 29.94 in 10.0 mi NW 13.8 mph 19.6 mph N/A   Clear
12:53 PM 39.0 °F 30.6 °F 24.1 °F 55% 29.95 in 10.0 mi NW 15.0 mph - N/A   Clear
1:53 PM 39.9 °F 32.5 °F 23.0 °F 51% 29.98 in 10.0 mi NW 12.7 mph - N/A   Clear
2:53 PM 39.9 °F 32.5 °F 23.0 °F 51% 30.01 in 10.0 mi WNW 12.7 mph - N/A   Clear
3:53 PM 39.0 °F 31.8 °F 24.1 °F 55% 30.03 in 10.0 mi WNW 11.5 mph - N/A   Clear
4:53 PM 36.0 °F 32.1 °F 25.0 °F 64% 30.06 in 10.0 mi WSW 4.6 mph - N/A   Clear
5:53 PM 32.0 °F 25.6 °F 24.8 °F 75% 30.07 in 10.0 mi WSW 6.9 mph - N/A   Clear
6:53 PM 30.9 °F 26.2 °F 24.1 °F 76% 30.11 in 10.0 mi SW 4.6 mph - N/A   Clear
7:53 PM 28.9 °F 21.9 °F 23.0 °F 78% 30.13 in 10.0 mi SW 6.9 mph - N/A   Clear
8:53 PM 28.9 °F 21.9 °F 24.1 °F 82% 30.14 in 10.0 mi SW 6.9 mph - N/A   Clear
9:53 PM 28.9 °F 21.9 °F 24.1 °F 82% 30.15 in 10.0 mi SW 6.9 mph - N/A   Clear
10:53 PM 28.9 °F 21.9 °F 24.1 °F 82% 30.17 in 10.0 mi SW 6.9 mph - N/A   Clear
11:53 PM 30.9 °F 25.2 °F 27.0 °F 85% 30.18 in 10.0 mi SSW 5.8 mph - N/A   Clear